Regional Weather Roundup
Issued by NWS

Home | Current Version | Previous Version | Graphics & Text | Print | Product List | Glossary On
Versions: 1 2 3 4 5 6 7 8 9 10 11 12 13 14 15 16 17 18 19 20 21 22 23 24 25 26 27 28 29 30 31 32 33 34 35 36 37 38 39 40 41 42 43 44 45 46 47 48 49 50
000
ASUS43 KDMX 020507
RWRIA

WEATHER ROUNDUP FOR IOWA
NATIONAL WEATHER SERVICE DES MOINES IA
1200 AM CDT TUE SEP 02 2014

NOTE: "FAIR" INDICATES FEW OR NO CLOUDS BELOW 12,000 FEET WITH NO
SIGNIFICANT WEATHER AND/OR OBSTRUCTIONS TO VISIBILITY.

* - THESE STATIONS ARE NOT NWS STATIONS...THUS NOT UNDER NWS
QUALITY CONTROL.  THEY ALSO DO NOT REPORT WEATHER SUCH
AS PRECIPITATION OR FOG.

IAZ001>003-012>014-020>022-031>034-043>046-020600-
   NORTHWEST IOWA

CITY           SKY/WX    TMP DP  RH WIND       PRES   REMARKS
CARROLL *      CLEAR     59  59 100 CALM      29.89R
CHEROKEE *     MOCLDY    59  59 100 S3        29.89R
DENISON *      CLEAR     63  63 100 CALM      29.90R
LE MARS *        N/A     63  59  88 W18G26    29.92R
ORANGE CITY *  CLEAR     66  59  77 CALM      29.89R
SHELDON *      CLEAR     57  57 100 CALM      29.87R
SIOUX CITY     TSTM      61  58  90 NW20G30     N/A
SPENCER        PTCLDY    59  56  89 W3        29.88R
STORM LAKE *   CLEAR     63  63 100 W5        29.90R
$$

IAZ055>058-069>071-079>083-090>094-020600-
   SOUTHWEST IOWA

CITY           SKY/WX    TMP DP  RH WIND       PRES   REMARKS
ATLANTIC *     CLEAR     61  61 100 CALM      29.91R
AUDUBON *      CLEAR     61  57  88 CALM      29.92R
CLARINDA *     CLEAR     64  64 100 S3        29.93R
COUNCIL BLFS * CLEAR     63  63 100 W5        29.93R
CRESTON *      CLEAR     63  63 100 CALM      29.92R FOG
HARLAN  *      CLEAR     61  61 100 CALM      29.96R
LAMONI         PTCLDY    66  64  93 CALM      29.91R
RED OAK *      PTCLDY    63  63 100 CALM      29.90S
SHENANDOAH *   PTCLDY    64  64 100 CALM      29.92R
$$

IAZ047>049-059>061-072>074-084-020600-
   CENTRAL IOWA

CITY           SKY/WX    TMP DP  RH WIND       PRES   REMARKS
AMES           CLEAR     61  60  97 CALM      29.89R
ANKENY *         N/A     63  63 100 CALM      29.88R
CHARITON *     CLOUDY    66  64  94 CALM      29.90R
DES MOINES     PTCLDY    67  63  87 S8        29.89R
GRINNELL*      PTCLDY    64  61  88 CALM      29.90R
KNOXVILLE *    CLEAR     66  64  94 SW6       29.88R
MARSHALLTOWN   CLEAR     64  62  93 SW5       29.88R
PELLA *        PTCLDY    65  64  97 CALM      29.90R
PERRY *          N/A     63  61  94 SW6       29.90R
$$

IAZ004>006-015-016-023>025-035-036-020600-
   NORTH CENTRAL IOWA

CITY           SKY/WX    TMP DP  RH WIND       PRES   REMARKS
ALGONA *       CLEAR     61  59  94 SW7       29.88R
CLARION *      CLEAR     59  59 100 S6        29.88R
ESTHERVILLE    CLEAR     58  56  93 NW6       29.86S
FORT DODGE *   CLEAR     61  57  88 CALM      29.89R
MASON CITY     CLEAR     58  57  97 CALM      29.88R
FOREST CITY *  CLEAR     57  57 100 CALM      29.87R
IOWA FALLS *     N/A     61  59  94 CALM      29.89R
$$

IAZ007>011-017>019-026>030-037>042-050>054-066-020600-
   NORTHEAST IOWA

CITY           SKY/WX    TMP DP  RH WIND       PRES   REMARKS
CEDAR RAPIDS   PTCLDY    63  63 100 S3        29.87R
CHARLES CITY * CLEAR     61  59  94 NW3       29.88R
CLINTON *      CLOUDY    68  64  88 W5        29.89F
DECORAH *      CLEAR     61  59  94 CALM      29.86R
DUBUQUE        MOCLDY    63  62  97 S3        29.87R
MONTICELLO *   CLEAR     64  64 100 CALM      29.87R
OELWEIN *      CLEAR     61  61 100 CALM      29.88R
WATERLOO       CLEAR     62  61  96 S6        29.86R
$$

IAZ064-065-067-068-078-020600-
   EAST CENTRAL IOWA

CITY           SKY/WX    TMP DP  RH WIND       PRES   REMARKS
DAVENPORT      CLOUDY    69  66  90 SE7       29.85F
IOWA CITY      MOCLDY    68  66  93 CALM      29.88R
MT. PLEASANT * LGT RAIN  70  68  94 S3        29.86F
MUSCATINE *    PTCLDY    70  68  94 NW6G14    29.87R
QUAD CITIES    LGT RAIN  69  66  90 SE5       29.86F
$$

IAZ062-063-075>077-085>089-095>099-020600-
   SOUTHEAST IOWA

CITY           SKY/WX    TMP DP  RH WIND       PRES   REMARKS
BURLINGTON     MOCLDY    70  68  93 CALM      29.88S
FAIRFIELD *    MOCLDY    66  64  94 NW5       29.89R
FORT MADISON * PTCLDY    72  70  94 CALM      29.90R
KEOKUK *       CLEAR     70  68  94 CALM      29.88S
OSKALOOSA *      N/A     66  64  94 W3        29.89R
CENTERVILLE *  CLEAR     64  64 100 CALM      29.91R
OTTUMWA        CLOUDY    66  64  93 CALM      29.89R
WASHINGTON *   LGT RAIN  68  68 100 CALM      29.88R
$$

ABBREVIATIONS USED IN REMARKS
   TC - TEMPERATURES IN CELSIUS
  WCI - WIND CHILL INDEX
   HX - HEAT INDEX
  VSB - VISIBILITY
$$




USA.gov is the U.S. government's official web portal to all federal, state and local government web resources and services.